Вернуться в каталог

DMSP 5D-2 F11 DEB

АктивенSSO
NORAD 28312·DEBRIS·🇺🇸 United States

Запущен Nov 28, 1991 с Vandenberg Space Force Base

Loading…

Ближайшие Пролёты (ближайшие 24 часа)

TLE

СвежийSource: Space-Track

Эпоха: Sep 13, 2026, 00:44 UTC

1 28312U 91082Z   26256.03074794  .00000554  00000-0  24934-3 0  9990
2 28312  98.6001 287.4830 0010407 206.3853 153.6799 14.26172167159757

Отслеживайте DMSP 5D-2 F11 DEB в реальном времени с AllMySat

Download on the App Store